Other Public Products
Issued by NWS Grand Forks, ND

Home | Current Version | Previous Version | Graphics & Text | Print | Product List | Glossary On
Versions: 1 2 3 4 5 6 7 8 9 10 11 12 13 14 15 16 17 18 19 20 21 22 23 24 25 26 27 28 29 30 31 32 33 34 35 36 37 38 39 40 41 42 43 44 45 46 47 48 49 50
000
FPUS83 KFGF 210631
OPUFGF
PRAIRIE TO PINES WEATHER ROUNDUP
NATIONAL WEATHER SERVICE EASTERN NORTH DAKOTA/GRAND FORKS ND
100 AM CDT FRI JUL 21 2017

 **SATELLITE DATA USED TO AUGMENT SKY COVER AT AUTOMATED STATIONS**
 *****  WEATHER ACROSS EASTERN NORTH DAKOTA  *****

CITY           SKY/WX    TMP DP  RH WIND       PRES   REMARKS
GRAND FORKS    FAIR      73  62  68 SE6       29.86F
6HR MIN TEMP:  72; 6HR MAX TEMP:  83;

GRAND FORKS AF FAIR      68  63  83 S6        29.87F
GRAND CITY NWS NOT AVBL
BUXTON           N/A     70  69  95 SE6         N/A
DEVILS LAKE    FAIR      73  68  84 SE6       29.87F
6HR MIN TEMP:  72; 6HR MAX TEMP:  79; 6HR PCP: TRACE;

FARGO          FAIR      78  67  68 SE13      29.88S
6HR MIN TEMP:  75; 6HR MAX TEMP:  86;

WAHPETON ARPT  FAIR      70  64  83 SE7       29.93S
$$

 *****  WEATHER ACROSS CENTRAL AND WESTERN NORTH DAKOTA  *****

CITY           SKY/WX    TMP DP  RH WIND       PRES   REMARKS
JAMESTOWN      FAIR      72  65  78 E7        29.88S
6HR MIN TEMP:  72; 6HR MAX TEMP:  84; 6HR PCP: TRACE;

BISMARCK       FAIR      75  60  59 S18G29    29.80F
6HR MIN TEMP:  70; 6HR MAX TEMP:  87; 6HR PCP:  0.12;

MINOT          FAIR      70  62  76 SE9       29.83F
6HR MIN TEMP:  69; 6HR MAX TEMP:  83; 6HR PCP:  0.01;

MINOT AFB      FAIR      69  62  78 S10       29.81S
6HR MIN TEMP:  67; 6HR MAX TEMP:  82; 6HR PCP:  0.05;

GARRISON         N/A     71  57  61 SE10      29.85S
6HR MIN TEMP:  70; 6HR MAX TEMP:  80; 6HR PCP:  0.01;

WILLISTON      FAIR      75  59  57 E13G20    29.79F
6HR MIN TEMP:  75; 6HR MAX TEMP:  88;

DICKINSON      FAIR      69  61  75 SE13      29.81F
6HR MIN TEMP:  69; 6HR MAX TEMP:  74;

HETTINGER      FAIR      73  59  61 S20G26    29.87R
6HR MIN TEMP:  66; 6HR MAX TEMP:  79; 6HR PCP:  0.36;

$$

 *****  OTHER OBSERVATIONS NORTHEAST NORTH DAKOTA  *****

CITY           SKY/WX    TMP DP  RH WIND       PRES   REMARKS
WALHALLA       NOT AVBL
LANGDON        FAIR      64  64 100 SE8       29.91R
CAVALIER       FAIR      66  61  82 CALM      29.89R
GRAFTON        FAIR      66  64  94 E5        29.89R
CANDO          NOT AVBL
FORT TOTTEN      N/A     73  67  80 S7        29.95S
ROLLA            N/A     63  63 100 CALM      29.90R
RUGBY          NOT AVBL
 ***** THE ABOVE OBSERVATIONS ARE NON NWS ARE NOT QUALITY
        CONTROLLED AND MAY MIS-REPORT RAIN FOR SNOW...
$$

 *****  OTHER OBSERVATIONS SOUTHEAST NORTH DAKOTA *****

CITY           SKY/WX    TMP DP  RH WIND       PRES   REMARKS
COOPERSTOWN    FAIR      72  68  88 SE8       29.90S
VALLEY CITY    FAIR      75  72  88 S8        29.91S
OAKES          NOT AVBL
GWINNER        CLEAR     72  68  88 S18       29.84F
BUFFALO          N/A     73  67  82 SE8         N/A
WYNDMERE       NOT AVBL
 ***** THE ABOVE OBSERVATIONS ARE NON NWS ARE NOT QUALITY
       CONTROLLED AND MAY MIS-REPORT RAIN FOR SNOW...
$$

  *****  WEATHER ACROSS NORTHERN MINNESOTA  *****

CITY           SKY/WX    TMP DP  RH WIND       PRES   REMARKS
FLAG ISLAND    FAIR      66  61  82 CALM      29.93F HAZE
WARROAD        FAIR      66  63  88 CALM      29.94S
ROSEAU         FAIR      64  61  88 E5        29.92S
HALLOCK        FAIR      66  63  88 E7        29.88R
THF RVR FALLS  FAIR      67  59  75 E8        29.92
6HR MIN TEMP:  65; 6HR MAX TEMP:  80;

HALSTAD          N/A     72  66  83 S8          N/A
FOSSTON        FAIR      66  61  82 E5        29.93S
BAUDETTE       MOCLDY    61  59  93 NE3       29.94F
6HR MIN TEMP:  59; 6HR MAX TEMP:  75;

WASKISH        FAIR      61  55  82 E5        29.96R
CROOKSTON      FAIR      70  61  73 SE8       29.89S
$$
  *****  WEATHER ACROSS CENTRAL AND WEST MINNESOTA  *****

CITY           SKY/WX    TMP DP  RH WIND       PRES   REMARKS
BEMIDJI        FAIR      64  59  85 CALM      29.95S
PARK RAPIDS    FAIR      70  63  78 CALM      29.96S
6HR MIN TEMP:  70; 6HR MAX TEMP:  86;

WADENA         FAIR      64  64 100 CALM      29.96R
DETROIT LAKES  FAIR      72  66  83 CALM      29.95S
MOORHEAD       FAIR      73  66  78 S12       29.90R
FERGUS FALLS   FAIR      72  70  94 CALM      29.94R
ELBOW LAKE     FAIR      70  68  94 E6        29.95F
6HR MIN TEMP:  68; 6HR MAX TEMP:  81;

MORRIS MN      FAIR      68  66  94 SE7       29.94F
STAPLES        FAIR      64  64 100 CALM      29.96S
WHEATON        FAIR      70  64  83 SE6       29.94F
$$
  *****  WEATHER ELSEWHERE ACROSS MINNESOTA  *****

CITY           SKY/WX    TMP DP  RH WIND       PRES   REMARKS
DULUTH         FAIR      64  61  90 CALM      29.97F
6HR MIN TEMP:  63; 6HR MAX TEMP:  82;

INTRNTL FALLS  FAIR      57  54  89 CALM      29.96F
6HR MIN TEMP:  53; 6HR MAX TEMP:  74;

ELY            FAIR      55  55 100 CALM      29.98F
CLOQUET        FAIR      64  61  88 NW3       29.97F
BRAINERD       FAIR      66  64  93 CALM      29.96F FOG
6HR MIN TEMP:  64; 6HR MAX TEMP:  83;

HIBBING        FAIR      56  56 100 CALM      29.97F
6HR MIN TEMP:  56; 6HR MAX TEMP:  79;

ALEXANDRIA     FAIR      70  67  90 SE5       29.98S
6HR MIN TEMP:  70; 6HR MAX TEMP:  82;

SAINT CLOUD    FAIR      65  65 100 CALM      29.95F
6HR MIN TEMP:  63; 6HR MAX TEMP:  84;

MINNEAPOLIS    FAIR      75  68  78 S6        29.96R
6HR MIN TEMP:  75; 6HR MAX TEMP:  88;

$$

  *****  WEATHER ACROSS SOUTH DAKOTA  *****

CITY           SKY/WX    TMP DP  RH WIND       PRES   REMARKS
SIOUX FALLS    FAIR      75  73  93 E7        29.92S
6HR MIN TEMP:  75; 6HR MAX TEMP:  86;

BROOKINGS      FAIR      73  69  87 SE12      29.95F
WATERTOWN      FAIR      72  67  84 SE7       29.95F
6HR MIN TEMP:  71; 6HR MAX TEMP:  84;

HURON          FAIR      74  70  87 E6        29.91S
6HR MIN TEMP:  74; 6HR MAX TEMP:  87;

SISSETON         N/A     69  68  96 CALM      29.92F
ABERDEEN       TSTM      74  69  85 CALM      29.96R
6HR MIN TEMP:  72; 6HR MAX TEMP:  86; 6HR PCP: TRACE;

MITCHELL       FAIR      74  72  93 E3        29.90R
PIERRE         NOT AVBL
MOBRIDGE       LGT RAIN  71  67  87 S7        29.95R
RAPID CITY     TSTM      65  63  93 NE23G32   29.99R FOG
6HR MIN TEMP:  67; 6HR MAX TEMP:  96; 6HR PCP:  0.06;

$$

  *****  SOME WEATHER IN NEARBY STATES *****

CITY           SKY/WX    TMP DP  RH WIND       PRES   REMARKS
GLASGOW MT     FAIR      73  49  42 E15       29.75R
6HR MIN TEMP:  73; 6HR MAX TEMP:  91;

GREAT FALLS MT FAIR      64  32  30 SW10      29.94R
6HR MIN TEMP:  64; 6HR MAX TEMP:  92;

CHEYENNE WY    FAIR      65  55  70 W13       30.15R
6HR MIN TEMP:  65; 6HR MAX TEMP:  84; 6HR PCP:  0.03;

SCOTTSBLUFF NE FAIR      74  65  73 CALM      29.98S
6HR MIN TEMP:  74; 6HR MAX TEMP:  89;

OMAHA NE       MOCLDY    88  75  65 S10       29.88F HX  97
6HR MIN TEMP:  86; 6HR MAX TEMP:  94;

DES MOINES IA  CLOUDY    76  73  91 NE7       29.93R
6HR MIN TEMP:  76; 6HR MAX TEMP:  95; 6HR PCP:  0.02;

DAVENPORT IA   FAIR      70  68  93 NW6       30.00R
6HR MIN TEMP:  69; 6HR MAX TEMP:  87; 6HR PCP:  1.49;

CHICAGO IL     MOCLDY    75  69  81 CALM      29.96F
6HR MIN TEMP:  74; 6HR MAX TEMP:  80;

EAU CLAIRE WI  MOCLDY    65  64  97 CALM      29.97R FOG
6HR MIN TEMP:  63; 6HR MAX TEMP:  83;

LA CROSSE WI   FAIR      74  71  91 S7        29.98R
6HR MIN TEMP:  72; 6HR MAX TEMP:  86;

$$

  *****  SOME NATIONAL WEATHER *****

CITY           SKY/WX    TMP DP  RH WIND       PRES   REMARKS
LA GUARDIA NY  MOCLDY    80  69  69 NW8       29.87S
6HR MIN TEMP:  79; 6HR MAX TEMP:  91; 6HR PCP: TRACE;

RALEIGH NC     MOCLDY    78  72  81 SW7       30.01F



USA.gov is the U.S. government's official web portal to all federal, state and local government web resources and services.